AirNav  
 
 1129 users online  

XS77 Seafood Warehouse Park Airport
Crystal Beach, Texas, USA

GOING TO CRYSTAL BEACH?


FAA INFORMATION EFFECTIVE 18 MAY 2023

Location

FAA Identifier: XS77
Lat/Long: 29-27-55.8360N 094-37-38.6950W
29-27.930600N 094-37.644917W
29.4655100,-94.6274153
(estimated)
Elevation: 9 ft. / 3 m (estimated)
Variation: 06E (1985)
From city: 1 mile N of CRYSTAL BEACH, TX
Time zone: UTC -5 (UTC -6 during Standard Time)
Zip code: 77650

Airport Operations

Airport use: Private use. Permission required prior to landing
Activation date: 06/1991
Control tower: no
ARTCC: HOUSTON CENTER
FSS: MONTGOMERY COUNTY FLIGHT SERVICE STATION
Attendance: UNATNDD
Wind indicator: yes
Segmented circle: no

Airport Communications

WX ASOS at GLS (17 nm SW): 123.950 (409-740-5483)

Nearby radio navigation aids

VOR radial/distance  VOR name  Freq  Var
MHFr121/7.9TRINITY VOR/DME114.7507E
VUHr041/17.2SCHOLES VOR/DME113.0006E
SBIr240/33.5SABINE PASS VOR/DME115.4007E

Airport Services

Fuel available: 100LL

Runway Information

Runway 12/30

Dimensions: 2200 x 75 ft. / 671 x 23 m
Surface: turf
RUNWAY 12  RUNWAY 30
Traffic pattern: leftleft

Airport Ownership and Management from official FAA records

Ownership: Privately-owned
Owner: PATRICK A. ROGERS
PO BOX 2160
CRYSTAL BEACH, TX 77650
Phone 409-684-3553
Manager: PATRICK A. ROGERS
PO BOX 2160
CRYSTAL BEACH, TX 77650
Phone 409-684-3553

Airport Operational Statistics

Aircraft based on the field: 6
Single engine airplanes: 4
Multi engine airplanes: 2
    

Additional Remarks

FOR CD CTC HOUSTON ARTCC AT 281-230-5622.

Instrument Procedures

There are no published instrument procedures at XS77.

Some nearby airports with instrument procedures:

KGLS - Scholes International Airport at Galveston (17 nm SW)
T00 - Chambers County Airport (18 nm N)
54T - RWJ Airpark (21 nm NW)
KHPY - Baytown Airport (26 nm NW)
T41 - La Porte Municipal Airport (26 nm NW)
 
Loc | Ops | Rwys | IFR | FBO | Links
Com | Nav | Svcs | Stats | Notes
Area around XS77 (Seafood Warehouse Park Airport)
 
Road maps at: MapQuest Bing Google
 
Aerial photo
No photo
 
Sectional chart

 
Airport distance calculator
Flying to Seafood Warehouse Park Airport? Find the distance to fly.

From to XS77

Sunrise and sunset
Times for 30-May-2023
 Local
(UTC-5)
 Zulu
(UTC)
Morning civil twilight05:5410:54
Sunrise06:2111:21
Sunset20:1201:12
Evening civil twilight20:3801:38

Current date and time
Zulu (UTC)  30-May-2023 12:15:46
Local (UTC-5)  30-May-2023 07:15:46
 
METAR
KGLS 
17nm SW 
301152Z 00000KT 10SM SCT018 25/21 A2989 RMK AO2 SLP122 T02500206 10250 20239 53003
KT41 
26nm NW 
301155Z AUTO 00000KT 7SM BR CLR 21/20 A2990 RMK AO2 T02100199 10227 20201 70039
KEFD 
29nm W 
301154Z 05004KT 10SM FEW025 22/20 A2988
KLVJ 
33nm W 
301153Z AUTO 00000KT 8SM CLR 23/20 A2990 RMK AO2 SLP125 T02280200 10244 20222 53003
TAF
KGLS 
17nm SW 
301120Z 3012/3112 VRB06KT P6SM FEW025 FM301400 09008KT P6SM VCSH SCT030 BKN100 FM301800 12010KT P6SM VCTS SCT035CB BKN100 FM302200 14010KT P6SM SCT030 BKN100 FM310300 13005KT P6SM FEW025 SCT120
NOTAMs
Click for the latest NOTAMs
NOTAMs are issued by the DoD/FAA and will open in a separate window not controlled by AirNav.

 

 
 

Would you like to see your business listed on this page?

 If your business provides an interesting product or service to pilots, flight crews, aircraft, or users of the Seafood Warehouse Park Airport, you should consider listing it here.  To start the listing process, click on the button below
 
Add a business
 

Other Pages about Seafood Warehouse Park Airport

Update a link
 
Copyright © AirNav, LLC. All rights reserved. Privacy Policy  Contact